RYR572 ESSA-EPWA

Flight info

Callsign RYR572
Flight time 1h 25m
Altitude 32000
Route BABAP T316 NEPVA DCT PENOR DCT LASGU DCT SORIX
Aircraft B738/M-SDE2E3FGHIRWXY/LB1

Departure

Time 2026-05-06 13:25
Airport Stockholm-Arlanda Airport (ESSA)

Arrival

Time 2026-05-06 14:50
Airport Warsaw Chopin Airport (EPWA)
Time Latitude Longitude Altitude Speed Heading
2026-05-06 13:00 59.65396 17.93528 136 ft 0 kts 75°
2026-05-06 13:16 59.65392 17.93501 136 ft 4 kts 73°
2026-05-06 13:17 59.65384 17.93450 136 ft 4 kts 66°
2026-05-06 13:17 59.65371 17.93405 136 ft 4 kts 42°
2026-05-06 13:17 59.65353 17.93389 136 ft 1 kts 345°
2026-05-06 13:17 59.65352 17.93389 136 ft 0 kts 345°
2026-05-06 13:20 59.65358 17.93386 136 ft 3 kts 345°
2026-05-06 13:21 59.65408 17.93360 136 ft 12 kts 345°
2026-05-06 13:21 59.65514 17.93323 136 ft 18 kts 328°
2026-05-06 13:21 59.65513 17.93173 137 ft 13 kts 257°
2026-05-06 13:21 59.65483 17.92949 137 ft 20 kts 251°
2026-05-06 13:22 59.65429 17.92661 137 ft 16 kts 278°
2026-05-06 13:22 59.65534 17.92530 137 ft 22 kts 341°
2026-05-06 13:22 59.65700 17.92445 137 ft 27 kts 346°
2026-05-06 13:22 59.65889 17.92467 137 ft 25 kts 10°
2026-05-06 13:23 59.66053 17.92526 137 ft 23 kts 10°
2026-05-06 13:23 59.66209 17.92584 137 ft 24 kts 11°
2026-05-06 13:23 59.66389 17.92650 137 ft 30 kts
2026-05-06 13:23 59.66559 17.92590 137 ft 20 kts 339°
2026-05-06 13:24 59.66607 17.92392 140 ft 19 kts 227°
2026-05-06 13:24 59.66481 17.92321 141 ft 19 kts 190°
2026-05-06 13:24 59.66256 17.92238 143 ft 64 kts 191°
2026-05-06 13:24 59.65588 17.91992 143 ft 130 kts 190°
2026-05-06 13:25 59.64542 17.91607 298 ft 169 kts 191°
2026-05-06 13:25 59.63483 17.91161 1013 ft 170 kts 194°
2026-05-06 13:25 59.62439 17.90563 1956 ft 160 kts 199°
2026-05-06 13:26 59.61319 17.90165 2621 ft 170 kts 178°
2026-05-06 13:26 59.60132 17.90212 3345 ft 173 kts 182°
2026-05-06 13:26 59.58875 17.90160 3721 ft 199 kts 184°
2026-05-06 13:26 59.57418 17.90139 4065 ft 215 kts 173°
2026-05-06 13:27 59.56061 17.91453 4583 ft 227 kts 137°
2026-05-06 13:27 59.54958 17.93782 5191 ft 236 kts 134°
2026-05-06 13:27 59.54066 17.96478 5951 ft 241 kts 105°
2026-05-06 13:27 59.54060 17.99745 6691 ft 243 kts 71°
2026-05-06 13:28 59.54933 18.02484 7424 ft 238 kts 44°
2026-05-06 13:28 59.56141 18.04693 8203 ft 236 kts 38°
2026-05-06 13:28 59.57374 18.06806 8973 ft 235 kts 38°
2026-05-06 13:28 59.58646 18.09001 9310 ft 256 kts 38°
2026-05-06 13:29 59.59986 18.11563 9537 ft 283 kts 53°
2026-05-06 13:29 59.60639 18.15293 9982 ft 300 kts 88°
2026-05-06 13:29 59.60202 18.19394 10329 ft 317 kts 118°
2026-05-06 13:29 59.58758 18.22785 10522 ft 334 kts 146°
2026-05-06 13:30 59.56666 18.25006 10695 ft 351 kts 162°
2026-05-06 13:30 59.54269 18.26424 10860 ft 369 kts 169°
2026-05-06 13:30 59.51712 18.27588 11039 ft 387 kts 171°
2026-05-06 13:30 59.49042 18.28743 11485 ft 396 kts 171°
2026-05-06 13:31 59.46326 18.29960 12094 ft 400 kts 170°
2026-05-06 13:31 59.43661 18.31213 12809 ft 401 kts 169°
2026-05-06 13:31 59.40943 18.32538 13457 ft 405 kts 169°
2026-05-06 13:31 59.38183 18.33914 14021 ft 409 kts 169°
2026-05-06 13:32 59.35417 18.35310 14608 ft 411 kts 169°
2026-05-06 13:32 59.32643 18.36718 15234 ft 412 kts 169°
2026-05-06 13:32 59.29860 18.38131 15839 ft 414 kts 170°
2026-05-06 13:32 59.27065 18.39546 16406 ft 416 kts 170°
2026-05-06 13:33 59.24260 18.40963 16963 ft 419 kts 170°
2026-05-06 13:33 59.21424 18.42392 17515 ft 421 kts 171°
2026-05-06 13:33 59.18627 18.43799 18057 ft 423 kts 171°
2026-05-06 13:33 59.15798 18.45219 18544 ft 425 kts 171°
2026-05-06 13:34 59.12891 18.46675 18971 ft 427 kts 171°
2026-05-06 13:34 59.10005 18.48120 19444 ft 429 kts 171°
2026-05-06 13:34 59.07111 18.49566 19873 ft 431 kts 172°
2026-05-06 13:34 59.04190 18.51023 20276 ft 434 kts 172°
2026-05-06 13:35 59.01259 18.52483 20687 ft 436 kts 172°
2026-05-06 13:35 58.98305 18.53950 21086 ft 439 kts 172°
2026-05-06 13:35 58.95329 18.55242 21465 ft 436 kts 178°
2026-05-06 13:35 58.92370 18.55590 21846 ft 430 kts 187°
2026-05-06 13:36 58.89406 18.55101 22253 ft 425 kts 195°
2026-05-06 13:36 58.86543 18.53829 22641 ft 422 kts 200°
2026-05-06 13:36 58.83692 18.52444 22984 ft 424 kts 200°
2026-05-06 13:36 58.80813 18.51057 23325 ft 427 kts 199°
2026-05-06 13:37 58.77928 18.49686 23657 ft 429 kts 199°
2026-05-06 13:37 58.75023 18.48321 23977 ft 430 kts 199°
2026-05-06 13:37 58.72118 18.46969 24315 ft 430 kts 199°
2026-05-06 13:37 58.69210 18.45622 24639 ft 430 kts 199°
2026-05-06 13:38 58.66338 18.44297 24933 ft 431 kts 198°
2026-05-06 13:38 58.63416 18.42951 25216 ft 432 kts 198°
2026-05-06 13:38 58.60491 18.41607 25499 ft 433 kts 198°
2026-05-06 13:38 58.57565 18.40266 25878 ft 431 kts 198°
2026-05-06 13:39 58.54656 18.38935 26265 ft 429 kts 198°
2026-05-06 13:39 58.51754 18.37608 26556 ft 429 kts 198°
2026-05-06 13:39 58.48889 18.36300 26911 ft 428 kts 197°
2026-05-06 13:39 58.46006 18.34987 27362 ft 425 kts 197°
2026-05-06 13:40 58.43142 18.33685 27830 ft 422 kts 197°
2026-05-06 13:40 58.40298 18.32394 28266 ft 419 kts 197°
2026-05-06 13:40 58.37461 18.31106 28675 ft 418 kts 197°
2026-05-06 13:40 58.34643 18.29830 29085 ft 416 kts 197°
2026-05-06 13:41 58.31832 18.28558 29525 ft 413 kts 197°
2026-05-06 13:41 58.29048 18.27301 29921 ft 411 kts 197°
2026-05-06 13:41 58.26258 18.26042 30152 ft 413 kts 197°
2026-05-06 13:41 58.23454 18.24778 30339 ft 415 kts 197°
2026-05-06 13:42 58.20687 18.23533 30619 ft 414 kts 197°
2026-05-06 13:42 58.17888 18.22279 30985 ft 412 kts 197°
2026-05-06 13:42 58.15107 18.21035 31329 ft 409 kts 197°
2026-05-06 13:42 58.12339 18.19798 31622 ft 408 kts 197°
2026-05-06 13:43 58.09577 18.18565 31901 ft 408 kts 197°
2026-05-06 13:43 58.04034 18.16094 31994 ft 410 kts 197°
2026-05-06 13:44 57.98537 18.13653 31994 ft 409 kts 196°
2026-05-06 13:44 57.92968 18.11188 31996 ft 412 kts 196°
2026-05-06 13:45 57.87366 18.08716 31996 ft 414 kts 196°
2026-05-06 13:45 57.78941 18.05016 31989 ft 414 kts 196°
2026-05-06 13:46 57.73334 18.02563 31957 ft 414 kts 195°
2026-05-06 13:46 57.67757 18.00130 31980 ft 415 kts 195°
2026-05-06 13:47 57.62119 17.97679 31976 ft 416 kts 195°
2026-05-06 13:47 57.56484 17.95236 31974 ft 416 kts 195°
2026-05-06 13:48 57.50876 17.92814 31986 ft 416 kts 195°
2026-05-06 13:48 57.45239 17.90386 31974 ft 416 kts 195°
2026-05-06 13:49 57.39600 17.87965 31969 ft 416 kts 195°
2026-05-06 13:49 57.33967 17.85555 31966 ft 416 kts 195°
2026-05-06 13:50 57.28331 17.83150 31974 ft 415 kts 195°
2026-05-06 13:50 57.22700 17.80755 31965 ft 415 kts 195°
2026-05-06 13:51 57.17105 17.78383 31958 ft 415 kts 195°
2026-05-06 13:51 57.11466 17.75999 31977 ft 417 kts 195°
2026-05-06 13:52 57.05805 17.73614 31962 ft 418 kts 195°
2026-05-06 13:52 57.00125 17.71228 31959 ft 419 kts 195°
2026-05-06 13:53 56.94472 17.68861 31945 ft 420 kts 195°
2026-05-06 13:53 56.88769 17.66480 31953 ft 421 kts 194°
2026-05-06 13:54 56.83045 17.64099 31963 ft 422 kts 194°
2026-05-06 13:54 56.77306 17.61719 31957 ft 423 kts 194°
2026-05-06 13:55 56.71599 17.59359 31956 ft 424 kts 194°
2026-05-06 13:55 56.65839 17.56985 31941 ft 424 kts 193°
2026-05-06 13:56 56.60079 17.54618 31957 ft 425 kts 193°
2026-05-06 13:56 56.54300 17.52251 31952 ft 426 kts 193°
2026-05-06 13:57 56.48562 17.49907 31950 ft 426 kts 193°
2026-05-06 13:57 56.42776 17.47552 31947 ft 426 kts 193°
2026-05-06 13:58 56.36992 17.45205 31946 ft 426 kts 193°
2026-05-06 13:58 56.31198 17.42861 31944 ft 427 kts 193°
2026-05-06 13:59 56.25390 17.40518 31933 ft 428 kts 193°
2026-05-06 13:59 56.19617 17.38197 31927 ft 428 kts 192°
2026-05-06 14:00 56.13798 17.35866 31925 ft 429 kts 193°
2026-05-06 14:00 56.07950 17.33529 31943 ft 431 kts 193°
2026-05-06 14:01 56.02075 17.31188 31937 ft 434 kts 192°
2026-05-06 14:01 55.96205 17.28857 31933 ft 436 kts 192°
2026-05-06 14:02 55.90277 17.26511 31926 ft 437 kts 192°
2026-05-06 14:02 55.84320 17.24160 31920 ft 439 kts 192°
2026-05-06 14:03 55.78342 17.21807 31932 ft 441 kts 192°
2026-05-06 14:03 55.72377 17.19467 31920 ft 442 kts 192°
2026-05-06 14:04 55.66325 17.17495 31904 ft 443 kts 181°
2026-05-06 14:04 55.60267 17.19253 31912 ft 446 kts 160°
2026-05-06 14:05 55.54676 17.24046 31913 ft 448 kts 154°
2026-05-06 14:05 55.49158 17.29041 31904 ft 449 kts 154°
2026-05-06 14:06 55.43574 17.34021 31907 ft 450 kts 155°
2026-05-06 14:06 55.37972 17.38946 31898 ft 450 kts 155°
2026-05-06 14:07 55.32377 17.43832 31886 ft 449 kts 156°
2026-05-06 14:07 55.26786 17.48699 31879 ft 449 kts 156°
2026-05-06 14:08 55.21222 17.53522 31883 ft 449 kts 156°
2026-05-06 14:08 55.15618 17.58368 31885 ft 450 kts 156°
2026-05-06 14:09 55.09996 17.63209 31874 ft 450 kts 157°
2026-05-06 14:09 55.04377 17.68032 31869 ft 449 kts 157°
2026-05-06 14:10 54.98807 17.72815 31849 ft 449 kts 157°
2026-05-06 14:10 54.93206 17.77602 31845 ft 448 kts 158°
2026-05-06 14:11 54.87612 17.82366 31863 ft 448 kts 158°
2026-05-06 14:11 54.82014 17.87117 31857 ft 447 kts 158°
2026-05-06 14:12 54.76461 17.91816 31853 ft 447 kts 158°
2026-05-06 14:12 54.70870 17.96533 31843 ft 447 kts 158°
2026-05-06 14:13 54.65272 18.01241 31852 ft 447 kts 158°
2026-05-06 14:13 54.59680 18.05929 31827 ft 447 kts 159°
2026-05-06 14:14 54.54082 18.10609 31826 ft 447 kts 159°
2026-05-06 14:14 54.48530 18.15236 31829 ft 447 kts 159°
2026-05-06 14:15 54.42932 18.19886 31826 ft 447 kts 159°
2026-05-06 14:15 54.37339 18.24519 31820 ft 446 kts 159°
2026-05-06 14:16 54.31780 18.29109 31833 ft 446 kts 159°
2026-05-06 14:16 54.26183 18.33717 31825 ft 447 kts 159°
2026-05-06 14:17 54.20580 18.38315 31821 ft 446 kts 160°
2026-05-06 14:17 54.14989 18.42891 31808 ft 446 kts 160°
2026-05-06 14:18 54.09435 18.47422 31778 ft 445 kts 160°
2026-05-06 14:18 54.03851 18.51965 31799 ft 445 kts 160°
2026-05-06 14:19 53.98259 18.56498 31779 ft 446 kts 160°
2026-05-06 14:19 53.92666 18.61021 31788 ft 445 kts 160°
2026-05-06 14:20 53.87113 18.65498 31737 ft 444 kts 161°
2026-05-06 14:20 53.81543 18.69977 31760 ft 443 kts 161°
2026-05-06 14:21 53.75985 18.74432 31754 ft 441 kts 161°
2026-05-06 14:21 53.70434 18.78866 31759 ft 441 kts 161°
2026-05-06 14:22 53.64882 18.83288 31748 ft 441 kts 161°
2026-05-06 14:22 53.59367 18.87669 31753 ft 442 kts 161°
2026-05-06 14:23 53.53810 18.92071 31763 ft 442 kts 161°
2026-05-06 14:23 53.48243 18.96469 31734 ft 441 kts 162°
2026-05-06 14:24 53.42679 19.00851 31738 ft 441 kts 162°
2026-05-06 14:24 53.37159 19.05186 31746 ft 441 kts 162°
2026-05-06 14:25 53.31607 19.09535 31748 ft 441 kts 162°
2026-05-06 14:25 53.26048 19.13876 31745 ft 441 kts 162°
2026-05-06 14:26 53.20537 19.18401 31739 ft 447 kts 155°
2026-05-06 14:26 53.15491 19.24636 31704 ft 451 kts 150°
2026-05-06 14:27 53.13086 19.27746 31720 ft 434 kts 150°
2026-05-06 14:27 53.10740 19.30769 31721 ft 419 kts 150°
2026-05-06 14:27 53.08476 19.33661 31687 ft 405 kts 151°
2026-05-06 14:27 53.06252 19.36473 31473 ft 397 kts 152°
2026-05-06 14:28 53.04067 19.39211 31094 ft 393 kts 152°
2026-05-06 14:28 53.01876 19.41942 30557 ft 394 kts 152°
2026-05-06 14:28 52.99663 19.44686 29605 ft 404 kts 152°
2026-05-06 14:28 52.97362 19.47530 28232 ft 420 kts 151°
2026-05-06 14:29 52.94970 19.50489 26745 ft 438 kts 150°
2026-05-06 14:29 52.92528 19.53518 25359 ft 452 kts 149°
2026-05-06 14:29 52.89974 19.56698 24191 ft 461 kts 148°
2026-05-06 14:29 52.87410 19.59896 23320 ft 462 kts 148°
2026-05-06 14:30 52.84866 19.63069 22561 ft 457 kts 147°
2026-05-06 14:30 52.82338 19.66213 21905 ft 450 kts 148°
2026-05-06 14:30 52.79856 19.69287 21249 ft 444 kts 148°
2026-05-06 14:30 52.77407 19.72312 20843 ft 433 kts 148°
2026-05-06 14:31 52.75031 19.75243 20576 ft 420 kts 148°
2026-05-06 14:31 52.72727 19.78080 20382 ft 406 kts 148°
2026-05-06 14:31 52.70538 19.80793 20212 ft 395 kts 146°
2026-05-06 14:31 52.68677 19.84103 19889 ft 399 kts 126°
2026-05-06 14:32 52.67335 19.88073 19551 ft 394 kts 124°
2026-05-06 14:32 52.66013 19.92004 19119 ft 391 kts 124°
2026-05-06 14:32 52.64681 19.95905 18634 ft 390 kts 124°
2026-05-06 14:32 52.63346 19.99770 18203 ft 387 kts 125°
2026-05-06 14:33 52.62013 20.03604 17745 ft 385 kts 125°
2026-05-06 14:33 52.60686 20.07407 17282 ft 381 kts 125°
2026-05-06 14:33 52.59369 20.11170 16845 ft 378 kts 125°
2026-05-06 14:33 52.58062 20.14898 16423 ft 374 kts 125°
2026-05-06 14:34 52.56784 20.18540 16024 ft 371 kts 125°
2026-05-06 14:34 52.55503 20.22185 15750 ft 364 kts 125°
2026-05-06 14:34 52.54255 20.25738 15601 ft 354 kts 125°
2026-05-06 14:34 52.53042 20.29184 15444 ft 344 kts 125°
2026-05-06 14:35 52.51857 20.32543 15305 ft 335 kts 125°
2026-05-06 14:35 52.50701 20.35822 15040 ft 330 kts 125°
2026-05-06 14:35 52.49567 20.39075 14741 ft 328 kts 125°
2026-05-06 14:35 52.48438 20.42323 14434 ft 325 kts 125°
2026-05-06 14:36 52.47338 20.45487 14137 ft 323 kts 125°
2026-05-06 14:36 52.46229 20.48669 13834 ft 321 kts 124°
2026-05-06 14:36 52.45128 20.51825 13515 ft 319 kts 124°
2026-05-06 14:36 52.44024 20.54987 13148 ft 318 kts 125°
2026-05-06 14:37 52.42928 20.58121 12817 ft 316 kts 125°
2026-05-06 14:37 52.41839 20.61232 12494 ft 314 kts 125°
2026-05-06 14:37 52.40756 20.64319 12196 ft 312 kts 125°
2026-05-06 14:37 52.39675 20.67398 11885 ft 310 kts 125°
2026-05-06 14:38 52.38601 20.70450 11566 ft 309 kts 125°
2026-05-06 14:38 52.37532 20.73483 11253 ft 308 kts 125°
2026-05-06 14:38 52.36464 20.76508 10918 ft 306 kts 124°
2026-05-06 14:38 52.35414 20.79479 10603 ft 305 kts 125°
2026-05-06 14:39 52.34354 20.82477 10308 ft 304 kts 125°
2026-05-06 14:39 52.33303 20.85446 10020 ft 302 kts 125°
2026-05-06 14:39 52.32263 20.88386 9887 ft 294 kts 125°
2026-05-06 14:39 52.31248 20.91253 9692 ft 290 kts 125°
2026-05-06 14:40 52.30235 20.94104 9390 ft 289 kts 125°
2026-05-06 14:40 52.29230 20.96931 9102 ft 288 kts 125°
2026-05-06 14:40 52.28226 20.99747 8822 ft 286 kts 125°
2026-05-06 14:40 52.27179 21.02421 8539 ft 280 kts 138°
2026-05-06 14:41 52.25652 21.04226 8276 ft 268 kts 158°
2026-05-06 14:41 52.24009 21.05621 7988 ft 267 kts 158°
2026-05-06 14:41 52.22363 21.07012 7715 ft 266 kts 158°
2026-05-06 14:41 52.20729 21.08404 7495 ft 262 kts 158°
2026-05-06 14:42 52.19140 21.09770 7384 ft 255 kts 158°
2026-05-06 14:42 52.17590 21.11103 7263 ft 248 kts 158°
2026-05-06 14:42 52.16591 21.11963 7192 ft 243 kts 158°
2026-05-06 14:42 52.14637 21.13645 6947 ft 239 kts 157°
2026-05-06 14:43 52.13654 21.14504 6849 ft 235 kts 157°
2026-05-06 14:43 52.11758 21.16166 6705 ft 238 kts 157°
2026-05-06 14:43 52.10290 21.17449 6485 ft 240 kts 157°
2026-05-06 14:43 52.08821 21.18735 6243 ft 240 kts 157°
2026-05-06 14:44 52.07356 21.20016 5986 ft 239 kts 157°
2026-05-06 14:44 52.05893 21.21293 5726 ft 238 kts 156°
2026-05-06 14:44 52.04927 21.22136 5564 ft 237 kts 156°
2026-05-06 14:45 52.01443 21.23752 4972 ft 221 kts 205°
2026-05-06 14:45 52.00334 21.22163 4786 ft 216 kts 241°
2026-05-06 14:45 51.99746 21.19906 4581 ft 222 kts 253°
2026-05-06 14:45 51.99518 21.17367 4156 ft 233 kts 269°
2026-05-06 14:46 51.99663 21.15640 3995 ft 234 kts 283°
2026-05-06 14:46 52.00341 21.13239 3780 ft 235 kts 300°
2026-05-06 14:46 52.01376 21.11221 3491 ft 230 kts 310°
2026-05-06 14:46 52.02533 21.09503 3208 ft 223 kts 319°
2026-05-06 14:47 52.03786 21.08065 2924 ft 217 kts 322°
2026-05-06 14:47 52.05463 21.06453 2568 ft 207 kts 327°
2026-05-06 14:47 52.06314 21.05706 2392 ft 204 kts 327°
2026-05-06 14:47 52.07539 21.04638 2136 ft 195 kts 326°
2026-05-06 14:48 52.08690 21.03628 1906 ft 179 kts 325°
2026-05-06 14:48 52.09730 21.02717 1668 ft 164 kts 324°
2026-05-06 14:48 52.10699 21.01866 1451 ft 155 kts 324°
2026-05-06 14:48 52.11653 21.01024 1242 ft 157 kts 326°
2026-05-06 14:49 52.12641 21.00222 1084 ft 161 kts 329°
2026-05-06 14:49 52.13615 20.99325 847 ft 161 kts 323°
2026-05-06 14:49 52.14569 20.98417 585 ft 158 kts 328°
2026-05-06 14:49 52.15547 20.97611 390 ft 159 kts 327°
2026-05-06 14:50 52.16473 20.96778 336 ft 136 kts 331°
2026-05-06 14:50 52.17102 20.96265 335 ft 56 kts 343°
2026-05-06 14:50 52.17280 20.96242 333 ft 0 kts
2026-05-06 14:50 52.17290 20.96243 335 ft 6 kts
2026-05-06 14:51 52.17356 20.96250 336 ft 13 kts 14°
2026-05-06 14:51 52.17406 20.96320 335 ft 8 kts 58°
2026-05-06 14:51 52.17441 20.96414 335 ft 12 kts 60°
2026-05-06 14:51 52.17468 20.96499 337 ft 1 kts 63°
2026-05-06 14:52 52.17478 20.96528 335 ft 5 kts 56°
2026-05-06 14:52 52.17512 20.96591 337 ft 10 kts 47°
2026-05-06 14:52 52.17555 20.96699 335 ft 12 kts 61°
2026-05-06 14:52 52.17584 20.96782 335 ft 5 kts 58°
2026-05-06 14:53 52.17618 20.96871 338 ft 14 kts 65°
2026-05-06 14:53 52.17569 20.96994 335 ft 15 kts 150°
2026-05-06 14:53 52.17533 20.97025 338 ft 1 kts 154°
2026-05-06 14:53 52.17517 20.97038 336 ft 6 kts 154°
2026-05-06 14:54 52.17447 20.97093 335 ft 14 kts 171°
2026-05-06 14:54 52.17418 20.97056 334 ft 4 kts 255°
2026-05-06 14:54 52.17409 20.97019 334 ft 0 kts 244°